Regional Weather Roundup
Issued by NWS

Home | Current Version | Previous Version | Graphics & Text | Print | Product List | Glossary Off
Versions: 1 2 3 4 5 6 7 8 9 10 11 12 13 14 15 16 17 18 19 20 21 22 23 24 25 26 27 28 29 30 31 32 33 34 35 36 37 38 39 40 41 42 43 44 45 46 47 48 49 50

000
ASUS44 KMEG 132110
RWRTN
TENNESSEE HOURLY STATE WEATHER ROUNDUP
NATIONAL WEATHER SERVICE MEMPHIS TN
300 PM CST SAT FEB 13 2016

TNZ002-004-019-021-049-052-054-088>092-132200-
WEST TENNESSEE

CITY           SKY/WX    TMP DP  RH WIND       PRES   REMARKS
MEMPHIS INTL   MOSUNNY   39   6  25 NE8G22    30.48F WCI  33
NWS MEMPHIS      N/A     36 N/A N/A MISG        N/A
JACKSON        PTSUNNY   33   5  30 N10       30.50F WCI  25
DYERSBURG      CLOUDY    28   7  40 NE9       30.54F WCI  20
UNION CITY     MOSUNNY   28   3  34 NE8       30.52S WCI  20
PARIS          SUNNY     27   3  36 N5        30.51F WCI  21
LEXINGTON      SUNNY     32   0  25 VRB7      30.48F WCI  26
$$

TNZ008-025-027-028-033-062-065-066-132200-
NORTH MIDDLE TENNESSEE

CITY           SKY/WX    TMP DP  RH WIND       PRES   REMARKS
NASHVILLE      MOSUNNY   32   1  26 N7        30.50F WCI  26
CLARKSVILLE    MOSUNNY   29   2  31 NE5       30.52F WCI  24
SMYRNA         SUNNY     32   3  29 N13       30.50F WCI  22
COOKEVILLE     SUNNY     28   7  40 VRB5      30.42F WCI  23
CROSSVILLE     SUNNY     28   5  37 N10       30.36F WCI  19
$$

TNZ061-075-076-078-094-096-097-132200-
SOUTH MIDDLE TENNESSEE

CITY           SKY/WX    TMP DP  RH WIND       PRES   REMARKS
FAYETTEVILLE   SUNNY     34   3  27 N7G16     30.43S WCI  28
TULLAHOMA      SUNNY     30   1  29 NW9       30.42F WCI  22
WINCHESTER     SUNNY     32   3  29 N10       30.42F WCI  24
MCMINNVILLE    SUNNY     30   3  31 NE7       30.43F WCI  23
COLUMBIA       SUNNY     34   3  27 N5        30.45F WCI  30
SHELBYVILLE    SUNNY     32   7  34 N7        30.47F WCI  26
$$

TNZ017-018-042-046-047-132200-
NORTHEAST TENNESSEE

CITY           SKY/WX    TMP DP  RH WIND       PRES   REMARKS
TRI CITIES     MOSUNNY   26   5  40 NW9       30.35R WCI  17
$$

TNZ012-013-036-069-073-074-132200-
CENTRAL EAST TENNESSEE

CITY           SKY/WX    TMP DP  RH WIND       PRES   REMARKS
KNOXVILLE      SUNNY     31   5  33 NE9       30.40F WCI  23
OAK RIDGE      SUNNY     33  -1  23 N8        30.42S WCI  26
GATLINBURG     CLEAR     28   5  37 NW10      30.40R WCI  19
MORRISTOWN     CLEAR     27   5  39 N10       30.37S WCI  17
$$

TNZ083-085-099-132200-
SOUTHEAST TENNESSEE

CITY           SKY/WX    TMP DP  RH WIND       PRES   REMARKS
CHATTANOOGA    SUNNY     38   0  20 NW15      30.41S WCI  29
$$

SKY/WX REPORTED AS FAIR MEANS FEW OR NO CLOUDS BELOW
12 THOUSAND FEET.




USA.gov is the U.S. government's official web portal to all federal, state and local government web resources and services.